TimeCDT,TemperatureF,Dew PointF,Humidity,Sea Level PressureIn,VisibilityMPH,Wind Direction,Wind SpeedMPH,Gust SpeedMPH,PrecipitationIn,Events,Conditions,WindDirDegrees,DateUTC
12:15 AM,57.2,42.8,59,30.09,10.0,SSE,10.4,17.3,N/A,,Clear,150,2013-03-28 05:15:00
12:35 AM,55.4,42.8,63,30.09,10.0,SSE,10.4,-,N/A,,Clear,150,2013-03-28 05:35:00
12:55 AM,57.2,42.8,59,30.09,10.0,SSE,12.7,19.6,N/A,,Clear,160,2013-03-28 05:55:00
1:15 AM,55.4,42.8,63,30.09,10.0,SSE,11.5,-,N/A,,Clear,150,2013-03-28 06:15:00
1:35 AM,55.4,42.8,63,30.10,10.0,SSE,8.1,-,N/A,,Clear,150,2013-03-28 06:35:00
1:55 AM,55.4,42.8,63,30.10,10.0,SSE,9.2,-,N/A,,Clear,150,2013-03-28 06:55:00
2:15 AM,53.6,42.8,67,30.10,10.0,SSE,8.1,-,N/A,,Clear,150,2013-03-28 07:15:00
2:35 AM,53.6,42.8,67,30.09,10.0,SE,10.4,-,N/A,,Clear,140,2013-03-28 07:35:00
2:55 AM,53.6,42.8,67,30.09,10.0,SSE,9.2,-,N/A,,Clear,150,2013-03-28 07:55:00
3:15 AM,51.8,44.6,76,30.09,10.0,SSE,9.2,-,N/A,,Clear,150,2013-03-28 08:15:00
3:35 AM,51.8,44.6,76,30.09,10.0,SSE,9.2,-,N/A,,Clear,150,2013-03-28 08:35:00
4:15 AM,51.8,44.6,76,30.09,10.0,SSE,9.2,-,N/A,,Clear,150,2013-03-28 09:15:00
4:35 AM,51.8,44.6,76,30.09,10.0,SSE,9.2,-,N/A,,Clear,150,2013-03-28 09:35:00
4:55 AM,51.8,44.6,76,30.09,10.0,SSE,11.5,-,N/A,,Clear,160,2013-03-28 09:55:00
5:15 AM,51.8,44.6,76,30.09,10.0,SSE,9.2,-,N/A,,Clear,160,2013-03-28 10:15:00
5:35 AM,51.8,44.6,76,30.09,10.0,SSE,10.4,-,N/A,,Clear,160,2013-03-28 10:35:00
5:55 AM,51.8,44.6,76,30.09,10.0,SSE,9.2,-,N/A,,Clear,160,2013-03-28 10:55:00
6:15 AM,51.8,46.4,82,30.10,10.0,SSE,11.5,-,N/A,,Clear,160,2013-03-28 11:15:00
6:35 AM,51.8,46.4,82,30.10,10.0,South,10.4,-,N/A,,Clear,170,2013-03-28 11:35:00
7:15 AM,50.0,44.6,82,30.11,10.0,SSE,9.2,-,N/A,,Clear,160,2013-03-28 12:15:00
7:55 AM,50.0,46.4,87,30.13,10.0,South,10.4,-,N/A,,Clear,170,2013-03-28 12:55:00
8:15 AM,51.8,46.4,82,30.13,10.0,South,11.5,-,N/A,,Clear,170,2013-03-28 13:15:00
8:35 AM,51.8,46.4,82,30.14,10.0,South,12.7,-,N/A,,Clear,180,2013-03-28 13:35:00
8:55 AM,51.8,46.4,82,30.15,10.0,South,12.7,-,N/A,,Clear,180,2013-03-28 13:55:00
9:15 AM,53.6,48.2,82,30.15,10.0,South,13.8,-,N/A,,Clear,170,2013-03-28 14:15:00
9:35 AM,55.4,50.0,82,30.16,10.0,South,18.4,-,N/A,,Clear,180,2013-03-28 14:35:00
9:55 AM,55.4,50.0,82,30.15,10.0,South,17.3,-,N/A,,Clear,180,2013-03-28 14:55:00
10:15 AM,57.2,50.0,77,30.15,10.0,South,17.3,23.0,N/A,,Clear,170,2013-03-28 15:15:00
10:55 AM,62.6,50.0,63,30.15,10.0,South,17.3,-,N/A,,Clear,180,2013-03-28 15:55:00
11:15 AM,62.6,51.8,68,30.15,10.0,South,18.4,-,N/A,,Clear,180,2013-03-28 16:15:00
11:35 AM,64.4,51.8,64,30.14,10.0,South,18.4,-,N/A,,Clear,170,2013-03-28 16:35:00
11:55 AM,64.4,51.8,64,30.14,10.0,South,17.3,-,N/A,,Clear,180,2013-03-28 16:55:00
12:15 PM,68.0,51.8,56,30.14,10.0,South,15.0,23.0,N/A,,Clear,180,2013-03-28 17:15:00
12:35 PM,68.0,51.8,56,30.13,10.0,South,17.3,21.9,N/A,,Clear,190,2013-03-28 17:35:00
12:55 PM,69.8,51.8,53,30.12,10.0,SSE,17.3,21.9,N/A,,Clear,160,2013-03-28 17:55:00
1:15 PM,69.8,51.8,53,30.11,10.0,South,15.0,20.7,N/A,,Clear,170,2013-03-28 18:15:00
1:35 PM,71.6,51.8,50,30.10,10.0,South,15.0,21.9,N/A,,Clear,170,2013-03-28 18:35:00
1:55 PM,71.6,53.6,53,30.08,10.0,SSE,18.4,24.2,N/A,,Clear,160,2013-03-28 18:55:00
2:15 PM,71.6,51.8,50,30.07,10.0,SSE,20.7,25.3,N/A,,Clear,160,2013-03-28 19:15:00
2:35 PM,71.6,53.6,53,30.07,10.0,SSE,20.7,27.6,N/A,,Scattered Clouds,150,2013-03-28 19:35:00
2:55 PM,73.4,53.6,50,30.06,10.0,South,19.6,24.2,N/A,,Scattered Clouds,190,2013-03-28 19:55:00
3:15 PM,73.4,51.8,47,30.05,10.0,South,19.6,28.8,N/A,,Scattered Clouds,180,2013-03-28 20:15:00
3:35 PM,73.4,53.6,50,30.04,10.0,South,18.4,24.2,N/A,,Scattered Clouds,180,2013-03-28 20:35:00
3:55 PM,71.6,51.8,50,30.04,10.0,SSE,18.4,24.2,N/A,,Scattered Clouds,160,2013-03-28 20:55:00
4:15 PM,71.6,51.8,50,30.04,10.0,South,17.3,-,N/A,,Mostly Cloudy,180,2013-03-28 21:15:00
4:35 PM,71.6,51.8,50,30.04,10.0,South,19.6,24.2,N/A,,Scattered Clouds,180,2013-03-28 21:35:00
4:55 PM,71.6,51.8,50,30.04,10.0,South,15.0,-,N/A,,Scattered Clouds,180,2013-03-28 21:55:00
5:15 PM,71.6,51.8,50,30.03,10.0,South,20.7,-,N/A,,Scattered Clouds,180,2013-03-28 22:15:00
5:35 PM,71.6,51.8,50,30.03,10.0,South,18.4,-,N/A,,Scattered Clouds,170,2013-03-28 22:35:00
5:55 PM,69.8,51.8,53,30.03,10.0,South,20.7,-,N/A,,Scattered Clouds,180,2013-03-28 22:55:00
6:15 PM,69.8,53.6,56,30.04,10.0,South,19.6,26.5,N/A,,Scattered Clouds,170,2013-03-28 23:15:00
6:35 PM,69.8,53.6,56,30.04,10.0,SSE,18.4,26.5,N/A,,Clear,160,2013-03-28 23:35:00
6:55 PM,68.0,53.6,60,30.05,10.0,SSE,15.0,19.6,N/A,,Scattered Clouds,160,2013-03-28 23:55:00
7:15 PM,68.0,53.6,60,30.05,10.0,SSE,17.3,23.0,N/A,,Scattered Clouds,160,2013-03-29 00:15:00
7:35 PM,68.0,53.6,60,30.05,10.0,SSE,13.8,19.6,N/A,,Clear,160,2013-03-29 00:35:00
7:55 PM,66.2,53.6,64,30.05,10.0,SSE,12.7,-,N/A,,Clear,160,2013-03-29 00:55:00
8:15 PM,66.2,53.6,64,30.05,10.0,SE,11.5,-,N/A,,Clear,140,2013-03-29 01:15:00
8:35 PM,64.4,53.6,68,30.06,10.0,SSE,11.5,-,N/A,,Clear,150,2013-03-29 01:35:00
8:55 PM,64.4,53.6,68,30.06,10.0,SSE,12.7,16.1,N/A,,Clear,150,2013-03-29 01:55:00
9:15 PM,64.4,55.4,73,30.06,10.0,SSE,11.5,-,N/A,,Clear,150,2013-03-29 02:15:00
9:35 PM,64.4,55.4,73,30.07,10.0,SSE,12.7,16.1,N/A,,Clear,150,2013-03-29 02:35:00
9:55 PM,62.6,55.4,77,30.08,10.0,SE,10.4,-,N/A,,Clear,140,2013-03-29 02:55:00
10:15 PM,62.6,55.4,77,30.09,10.0,SE,10.4,-,N/A,,Clear,130,2013-03-29 03:15:00
10:35 PM,60.8,55.4,82,30.09,10.0,SE,10.4,-,N/A,,Clear,130,2013-03-29 03:35:00
10:55 PM,60.8,55.4,82,30.09,10.0,SE,9.2,-,N/A,,Clear,140,2013-03-29 03:55:00
11:15 PM,60.8,55.4,82,30.09,10.0,SE,10.4,-,N/A,,Clear,130,2013-03-29 04:15:00
11:55 PM,60.8,55.4,82,30.09,10.0,SE,11.5,-,N/A,,Clear,140,2013-03-29 04:55:00